Glencoe, MN

11:01 AM CDT on September 26, 2017 (GMT -0500)
Glencoe Municipal

Weather History for KGYL - October, 2012

Change the Weather History Date:

Thursday, October 4, 2012

  Actual Average (KHCD) Record (KHCD)
Temperature  
Mean Temperature 52 °F -  
Max Temperature 64 °F 65 °F 85 °F (2011)
Min Temperature 40 °F 41 °F 21 °F (1989)
Degree Days  
Heating Degree Days 13    
Growing Degree Days 2 (Base 50)    
Moisture  
Dew Point 34 °F    
Average Humidity 63    
Maximum Humidity 80    
Minimum Humidity 35    
Precipitation  
Precipitation 0.00 in - - ()
Sea Level Pressure  
Sea Level Pressure 30.01 in    
Wind  
Wind Speed 17 mph (West)    
Max Wind Speed 30 mph    
Max Gust Speed 43 mph    
Visibility 10 miles    
Events      
Averages and records for this station are not official NWS values.
T = Trace of Precipitation, MM = Missing Value Source: NWS Daily Summary

Daily Weather History Graph

Daily Weather History Graph

Search for Another Location

Airport or City:

Trip Planner

Search our weather history database for the weather conditions in past years. The results will help you decide how hot, cold, wet, or windy it might be!

Date:

Astronomy

Oct. 04, 2012 Rise Set
Actual Time 7:18 AM CDT 6:50 PM CDT
Civil Twilight 6:49 AM CDT 7:19 PM CDT
Nautical Twilight 6:15 AM CDT 7:53 PM CDT
Astronomical Twilight 5:41 AM CDT 8:27 PM CDT
Moon 9:15 PM CDT (10/4) 11:47 AM CDT (10/4)
Length of Visible Light 12h 30m
Length of Day
11h 31m
Waning Gibbous, 82% of the Moon is Illuminated
Oct 4
Waning Gibbous
Oct 8
Last Quarter
Oct 15
New
Oct 21
First Quarter
Oct 29
Full

Hourly Weather History & Observations

Time (CDT) Temp. Windchill Dew Point Humidity Pressure Visibility Wind Dir Wind Speed Gust Speed Precip Events Conditions
12:16 AM 61.2 °F - 40.1 °F 46% 29.79 in 10.0 mi SE 10.4 mph - N/A   Clear
12:35 AM 61.7 °F - 39.6 °F 44% 29.77 in 10.0 mi SE 11.5 mph - N/A   Clear
12:55 AM 61.2 °F - 39.2 °F 44% 29.76 in 10.0 mi SE 10.4 mph - N/A   Clear
1:15 AM 61.5 °F - 37.8 °F 41% 29.75 in 10.0 mi SE 12.7 mph - N/A   Clear
1:35 AM 64.0 °F - 36.0 °F 35% 29.76 in 10.0 mi SSE 10.4 mph 18.4 mph N/A   Clear
1:55 AM 64.2 °F - 35.6 °F 35% 29.76 in 10.0 mi South 15.0 mph 21.9 mph N/A   Clear
2:15 AM 63.5 °F - 35.2 °F 35% 29.77 in 10.0 mi South 16.1 mph 26.5 mph N/A   Clear
2:35 AM 60.3 °F - 38.1 °F 44% 29.77 in 10.0 mi SW 16.1 mph 24.2 mph N/A   Clear
2:55 AM 54.1 °F - 40.3 °F 59% 29.79 in 10.0 mi SSW 13.8 mph 25.3 mph N/A   Clear
3:15 AM 52.5 °F - 41.0 °F 65% 29.80 in 10.0 mi SW 15.0 mph 23.0 mph N/A   Clear
3:35 AM 49.3 °F - 40.6 °F 72% 29.81 in 7.0 mi WSW 18.4 mph 33.4 mph N/A   Clear
3:55 AM 48.2 °F - 40.5 °F 75% 29.82 in 10.0 mi WSW 15.0 mph 28.8 mph N/A   Clear
4:15 AM 48.2 °F - 40.1 °F 74% 29.83 in 10.0 mi WSW 15.0 mph 24.2 mph N/A   Mostly Cloudy
4:35 AM 47.3 °F - 39.7 °F 75% 29.84 in 10.0 mi WSW 18.4 mph 31.1 mph N/A   Overcast
4:55 AM 46.9 °F - 39.7 °F 76% 29.84 in 10.0 mi WSW 17.3 mph 28.8 mph N/A   Overcast
5:16 AM 46.8 °F - 39.7 °F 77% 29.85 in 10.0 mi WSW 13.8 mph 24.2 mph N/A   Overcast
5:35 AM 46.4 °F 39.2 °F 39.4 °F 77% 29.86 in 10.0 mi West 18.4 mph 32.2 mph N/A   Overcast
5:55 AM 45.7 °F 37.8 °F 39.2 °F 78% 29.87 in 10.0 mi West 20.7 mph 29.9 mph N/A   Overcast
6:15 AM 45.0 °F 36.2 °F 39.0 °F 80% 29.87 in 10.0 mi West 24.2 mph 39.1 mph N/A   Overcast
6:35 AM 44.6 °F 36.4 °F 38.3 °F 79% 29.88 in 10.0 mi West 20.7 mph 33.4 mph N/A   Overcast
6:55 AM 44.4 °F 37.9 °F 38.1 °F 79% 29.90 in 10.0 mi WSW 13.8 mph 34.5 mph N/A   Overcast
7:15 AM 43.2 °F 34.5 °F 36.5 °F 77% 29.92 in 10.0 mi West 20.7 mph 29.9 mph N/A   Overcast
7:40 AM 42.1 °F 33.3 °F 34.2 °F 74% 29.94 in 10.0 mi West 19.6 mph 34.5 mph N/A   Overcast
7:55 AM 41.9 °F 33.4 °F 34.0 °F 73% 29.94 in 10.0 mi West 18.4 mph 27.6 mph N/A   Overcast
8:15 AM 41.0 °F 32.5 °F 33.8 °F 76% 29.94 in 10.0 mi West 17.3 mph 25.3 mph N/A   Scattered Clouds
8:35 AM 41.9 °F 33.4 °F 33.1 °F 71% 29.96 in 10.0 mi West 18.4 mph 28.8 mph N/A   Mostly Cloudy
8:55 AM 41.4 °F 31.4 °F 32.5 °F 71% 29.97 in 10.0 mi West 24.2 mph 31.1 mph N/A   Overcast
9:15 AM 41.2 °F 33.7 °F 32.4 °F 71% 29.98 in 10.0 mi West 13.8 mph 27.6 mph N/A   Overcast
9:36 AM 41.2 °F 32.4 °F 32.4 °F 71% 29.99 in 10.0 mi West 18.4 mph 27.6 mph N/A   Overcast
9:55 AM 41.7 °F 31.9 °F 32.9 °F 71% 29.99 in 10.0 mi West 24.2 mph 33.4 mph N/A   Overcast
10:15 AM 42.1 °F 33.1 °F 32.9 °F 70% 29.99 in 10.0 mi West 20.7 mph 29.9 mph N/A   Overcast
10:36 AM 42.3 °F 33.1 °F 32.4 °F 68% 30.00 in 10.0 mi West 21.9 mph 33.4 mph N/A   Overcast
10:55 AM 43.0 °F 34.5 °F 32.9 °F 68% 30.01 in 10.0 mi West 19.6 mph 32.2 mph N/A   Overcast
11:15 AM 44.2 °F 34.2 °F 32.5 °F 63% 30.01 in 10.0 mi West 29.9 mph 34.5 mph N/A   Overcast
11:35 AM 44.4 °F 35.1 °F 32.0 °F 62% 30.02 in 10.0 mi West 26.5 mph 40.3 mph N/A   Overcast
11:55 AM 45.1 °F 35.6 °F 32.0 °F 60% 30.03 in 10.0 mi West 28.8 mph 39.1 mph N/A   Overcast
12:15 PM 45.3 °F 35.9 °F 32.0 °F 60% 30.04 in 10.0 mi West 28.8 mph 40.3 mph N/A   Overcast
12:35 PM 46.0 °F 36.9 °F 31.6 °F 57% 30.06 in 10.0 mi West 28.8 mph 39.1 mph N/A   Overcast
12:55 PM 45.7 °F 37.6 °F 32.0 °F 59% 30.07 in 10.0 mi West 21.9 mph 41.4 mph N/A   Overcast
1:15 PM 45.5 °F 36.7 °F 32.0 °F 59% 30.07 in 10.0 mi West 25.3 mph 35.7 mph N/A   Overcast
1:35 PM 46.4 °F 38.7 °F 31.8 °F 57% 30.07 in 10.0 mi West 20.7 mph 35.7 mph N/A   Overcast
1:55 PM 46.0 °F 37.2 °F 31.8 °F 58% 30.08 in 10.0 mi West 26.5 mph 38.0 mph N/A   Overcast
2:15 PM 46.6 °F - 31.3 °F 55% 30.08 in 10.0 mi West 29.9 mph 39.1 mph N/A   Overcast
2:35 PM 46.2 °F 38.1 °F 31.3 °F 56% 30.09 in 10.0 mi West 23.0 mph 38.0 mph N/A   Overcast
2:55 PM 46.8 °F - 31.5 °F 55% 30.09 in 10.0 mi West 28.8 mph 38.0 mph N/A   Overcast
3:15 PM 46.8 °F - 31.1 °F 55% 30.10 in 10.0 mi West 27.6 mph 42.6 mph N/A   Overcast
3:35 PM 46.6 °F - 30.9 °F 54% 30.10 in 10.0 mi West 23.0 mph 41.4 mph N/A   Overcast
3:55 PM 46.0 °F 37.6 °F 30.6 °F 55% 30.11 in 10.0 mi West 24.2 mph 39.1 mph N/A   Overcast
4:15 PM 45.9 °F 38.0 °F 30.7 °F 56% 30.12 in 10.0 mi West 20.7 mph 32.2 mph N/A   Overcast
4:35 PM 45.9 °F 37.2 °F 30.4 °F 55% 30.12 in 10.0 mi West 25.3 mph 36.8 mph N/A   Overcast
4:55 PM 45.9 °F 36.6 °F 29.8 °F 54% 30.13 in 10.0 mi WNW 28.8 mph 35.7 mph N/A   Overcast
5:15 PM 45.5 °F 36.0 °F 29.8 °F 54% 30.13 in 10.0 mi West 29.9 mph 35.7 mph N/A   Overcast
5:55 PM 45.0 °F 36.4 °F 30.2 °F 56% 30.14 in 10.0 mi WNW 23.0 mph 32.2 mph N/A   Overcast
6:15 PM 45.0 °F 37.1 °F 30.2 °F 56% 30.14 in 10.0 mi West 19.6 mph 29.9 mph N/A   Overcast
6:35 PM 44.6 °F 36.1 °F 30.0 °F 57% 30.14 in 10.0 mi West 21.9 mph 33.4 mph N/A   Overcast
6:55 PM 44.1 °F 35.9 °F 30.2 °F 58% 30.15 in 10.0 mi WNW 19.6 mph 32.2 mph N/A   Overcast
7:15 PM 43.9 °F 35.9 °F 30.6 °F 59% 30.15 in 10.0 mi West 18.4 mph 21.9 mph N/A   Overcast
7:35 PM 43.9 °F 35.7 °F 30.0 °F 58% 30.16 in 10.0 mi WNW 19.6 mph 29.9 mph N/A   Overcast
7:55 PM 43.9 °F 37.2 °F 30.2 °F 59% 30.16 in 10.0 mi West 13.8 mph 21.9 mph N/A   Overcast
8:15 PM 43.9 °F 38.8 °F 30.2 °F 59% 30.17 in 10.0 mi West 9.2 mph 17.3 mph N/A   Overcast
8:35 PM 43.9 °F 38.3 °F 30.2 °F 59% 30.17 in 10.0 mi West 10.4 mph 16.1 mph N/A   Overcast
8:55 PM 43.7 °F 36.3 °F 31.1 °F 61% 30.17 in 10.0 mi West 16.1 mph 24.2 mph N/A   Overcast
9:15 PM 43.3 °F 36.5 °F 32.2 °F 65% 30.17 in 10.0 mi WSW 13.8 mph 21.9 mph N/A   Overcast
9:36 PM 42.8 °F 35.8 °F 32.2 °F 66% 30.17 in 10.0 mi West 13.8 mph 20.7 mph N/A   Mostly Cloudy
9:55 PM 42.1 °F 34.9 °F 32.0 °F 67% 30.17 in 10.0 mi West 13.8 mph 20.7 mph N/A   Mostly Cloudy
10:15 PM 41.0 °F 33.1 °F 31.8 °F 70% 30.18 in 10.0 mi West 15.0 mph 23.0 mph N/A   Scattered Clouds
10:36 PM 40.3 °F 33.0 °F 32.0 °F 72% 30.18 in 10.0 mi West 12.7 mph - N/A   Clear
10:55 PM 40.1 °F 33.6 °F 32.0 °F 73% 30.18 in 10.0 mi West 10.4 mph 18.4 mph N/A   Scattered Clouds
11:15 PM 40.1 °F 31.3 °F 31.8 °F 72% 30.18 in 10.0 mi West 17.3 mph 20.7 mph N/A   Scattered Clouds
11:35 PM 40.1 °F 32.0 °F 31.1 °F 70% 30.18 in 10.0 mi West 15.0 mph 21.9 mph N/A   Scattered Clouds
11:55 PM 40.1 °F 33.2 °F 31.3 °F 71% 30.17 in 10.0 mi West 11.5 mph 23.0 mph N/A   Mostly Cloudy